Time,TemperatureF,DewpointF,PressureIn,WindDirection,WindDirectionDegrees,WindSpeedMPH,WindSpeedGustMPH,Humidity,HourlyPrecipIn,Conditions,Clouds,dailyrainin,SoftwareType,DateUTC
2013-01-06 00:05:00,48.8,48.0,29.98,West,264,0.0,2.0,95,0.08,,,0.01,weatherlink.com 1.10,2013-01-06 08:05:00,
2013-01-06 00:20:00,48.5,47.0,29.98,NW,325,0.0,3.0,95,0.07,,,0.02,weatherlink.com 1.10,2013-01-06 08:20:00,
2013-01-06 00:35:00,48.1,47.0,29.98,South,169,0.0,1.0,95,0.09,,,0.05,weatherlink.com 1.10,2013-01-06 08:35:00,
2013-01-06 00:50:00,48.0,47.0,29.98,ESE,104,1.0,1.0,96,0.06,,,0.05,weatherlink.com 1.10,2013-01-06 08:50:00,
2013-01-06 01:05:00,47.8,47.0,29.98,ESE,111,0.0,0.0,96,0.04,,,0.05,weatherlink.com 1.10,2013-01-06 09:05:00,
2013-01-06 01:21:00,47.9,47.0,29.98,ESE,113,0.0,1.0,96,0.06,,,0.09,weatherlink.com 1.10,2013-01-06 09:21:00,
2013-01-06 01:35:00,47.7,47.0,29.98,ESE,111,0.0,1.0,96,0.04,,,0.09,weatherlink.com 1.10,2013-01-06 09:35:00,
2013-01-06 01:50:00,47.6,47.0,29.98,ESE,111,0.0,0.0,96,0.04,,,0.09,weatherlink.com 1.10,2013-01-06 09:50:00,
2013-01-06 02:05:00,47.5,47.0,29.98,ESE,111,0.0,0.0,97,0.04,,,0.09,weatherlink.com 1.10,2013-01-06 10:05:00,
2013-01-06 02:21:00,47.4,47.0,29.98,ESE,113,0.0,1.0,97,0.02,,,0.11,weatherlink.com 1.10,2013-01-06 10:21:00,
2013-01-06 02:35:00,47.2,46.0,29.98,ESE,113,0.0,1.0,97,0.02,,,0.11,weatherlink.com 1.10,2013-01-06 10:35:00,
2013-01-06 02:51:00,47.4,47.0,29.98,NW,314,0.0,1.0,97,0.02,,,0.11,weatherlink.com 1.10,2013-01-06 10:51:00,
2013-01-06 03:05:00,47.3,47.0,29.98,ENE,68,0.0,1.0,97,0.02,,,0.11,weatherlink.com 1.10,2013-01-06 11:05:00,
2013-01-06 03:21:00,47.0,46.0,29.97,ENE,68,0.0,0.0,97,0.00,,,0.11,weatherlink.com 1.10,2013-01-06 11:21:00,
2013-01-06 03:36:00,46.4,46.0,29.97,ENE,68,0.0,1.0,97,0.00,,,0.11,weatherlink.com 1.10,2013-01-06 11:36:00,
2013-01-06 03:51:00,46.3,46.0,29.97,East,79,0.0,1.0,98,0.00,,,0.11,weatherlink.com 1.10,2013-01-06 11:51:00,
2013-01-06 04:07:00,46.4,46.0,29.97,ESE,114,0.0,2.0,97,0.00,,,0.11,weatherlink.com 1.10,2013-01-06 12:07:00,
2013-01-06 04:21:00,46.3,46.0,29.96,East,84,1.0,1.0,97,0.02,,,0.13,weatherlink.com 1.10,2013-01-06 12:21:00,
2013-01-06 04:37:00,46.3,46.0,29.96,East,82,0.0,1.0,97,0.02,,,0.13,weatherlink.com 1.10,2013-01-06 12:37:00,
2013-01-06 05:07:00,45.3,45.0,29.96,ENE,78,0.0,1.0,97,0.02,,,0.13,weatherlink.com 1.10,2013-01-06 13:07:00,
2013-01-06 05:22:00,44.9,44.0,29.96,North,1,1.0,1.0,97,0.00,,,0.13,weatherlink.com 1.10,2013-01-06 13:22:00,
2013-01-06 05:37:00,45.3,45.0,29.97,ENE,63,0.0,1.0,98,0.00,,,0.13,weatherlink.com 1.10,2013-01-06 13:37:00,
2013-01-06 05:52:00,45.5,45.0,29.98,North,354,0.0,1.0,98,0.00,,,0.13,weatherlink.com 1.10,2013-01-06 13:52:00,
2013-01-06 06:07:00,45.8,45.0,29.98,NNE,12,1.0,1.0,98,0.00,,,0.13,weatherlink.com 1.10,2013-01-06 14:07:00,
2013-01-06 06:23:00,45.6,45.0,29.99,NE,53,0.0,1.0,98,0.00,,,0.13,weatherlink.com 1.10,2013-01-06 14:23:00,
2013-01-06 06:37:00,45.4,45.0,30.01,WNW,291,0.0,2.0,98,0.00,,,0.13,weatherlink.com 1.10,2013-01-06 14:37:00,
2013-01-06 06:53:00,45.5,45.0,30.02,WNW,283,0.0,1.0,98,0.00,,,0.13,weatherlink.com 1.10,2013-01-06 14:53:00,
2013-01-06 07:08:00,45.5,45.0,30.02,ESE,102,1.0,1.0,98,0.00,,,0.13,weatherlink.com 1.10,2013-01-06 15:08:00,
2013-01-06 07:22:00,45.1,45.0,30.02,ESE,115,0.0,1.0,98,0.00,,,0.13,weatherlink.com 1.10,2013-01-06 15:22:00,
2013-01-06 07:37:00,45.2,45.0,30.04,WNW,300,0.0,1.0,98,0.00,,,0.13,weatherlink.com 1.10,2013-01-06 15:37:00,
2013-01-06 07:52:00,45.3,45.0,30.04,WNW,300,0.0,1.0,98,0.00,,,0.13,weatherlink.com 1.10,2013-01-06 15:52:00,
2013-01-06 08:07:00,45.4,45.0,30.04,WNW,301,0.0,0.0,98,0.00,,,0.13,weatherlink.com 1.10,2013-01-06 16:07:00,
2013-01-06 08:22:00,45.5,45.0,30.04,WNW,299,0.0,1.0,98,0.00,,,0.13,weatherlink.com 1.10,2013-01-06 16:22:00,
2013-01-06 08:37:00,45.6,45.0,30.04,NNW,327,0.0,1.0,98,0.00,,,0.13,weatherlink.com 1.10,2013-01-06 16:37:00,
2013-01-06 08:52:00,45.8,45.0,30.05,NW,316,2.0,2.0,98,0.00,,,0.13,weatherlink.com 1.10,2013-01-06 16:52:00,
2013-01-06 09:07:00,46.2,46.0,30.07,NW,304,2.0,6.0,98,0.00,,,0.13,weatherlink.com 1.10,2013-01-06 17:07:00,
2013-01-06 09:22:00,46.7,46.0,30.07,NNW,329,0.0,4.0,98,0.00,,,0.13,weatherlink.com 1.10,2013-01-06 17:22:00,
2013-01-06 09:37:00,46.8,46.0,30.08,North,360,0.0,1.0,98,0.00,,,0.13,weatherlink.com 1.10,2013-01-06 17:37:00,
2013-01-06 09:53:00,47.0,47.0,30.09,NNE,18,0.0,0.0,98,0.00,,,0.13,weatherlink.com 1.10,2013-01-06 17:53:00,
2013-01-06 10:08:00,47.2,47.0,30.08,NNE,18,1.0,2.0,98,0.00,,,0.13,weatherlink.com 1.10,2013-01-06 18:08:00,
2013-01-06 10:23:00,47.4,47.0,30.08,ENE,77,0.0,1.0,98,0.00,,,0.13,weatherlink.com 1.10,2013-01-06 18:23:00,
2013-01-06 10:38:00,47.8,47.0,30.08,NE,40,0.0,1.0,97,0.00,,,0.13,weatherlink.com 1.10,2013-01-06 18:38:00,
2013-01-06 10:53:00,48.5,48.0,30.08,North,352,1.0,1.0,98,0.00,,,0.13,weatherlink.com 1.10,2013-01-06 18:53:00,
2013-01-06 11:08:00,48.9,48.0,30.07,North,11,1.0,2.0,96,0.00,,,0.13,weatherlink.com 1.10,2013-01-06 19:08:00,
2013-01-06 11:23:00,50.1,49.0,30.06,North,360,1.0,4.0,96,0.00,,,0.13,weatherlink.com 1.10,2013-01-06 19:23:00,
2013-01-06 11:38:00,50.5,48.0,30.06,NNE,15,1.0,5.0,92,0.00,,,0.13,weatherlink.com 1.10,2013-01-06 19:38:00,
2013-01-06 11:53:00,49.4,47.0,30.05,NNE,25,1.0,4.0,91,0.00,,,0.13,weatherlink.com 1.10,2013-01-06 19:53:00,
2013-01-06 12:08:00,50.1,48.0,30.04,East,101,1.0,4.0,91,0.00,,,0.13,weatherlink.com 1.10,2013-01-06 20:08:00,
2013-01-06 12:38:00,51.2,48.0,30.03,North,3,1.0,3.0,88,0.00,,,0.13,weatherlink.com 1.10,2013-01-06 20:38:00,
2013-01-06 12:53:00,51.5,48.0,30.04,East,96,0.0,3.0,86,0.00,,,0.13,weatherlink.com 1.10,2013-01-06 20:53:00,
2013-01-06 13:08:00,50.5,47.0,30.03,NE,51,1.0,2.0,88,0.00,,,0.13,weatherlink.com 1.10,2013-01-06 21:08:00,
2013-01-06 13:23:00,49.6,47.0,30.03,ENE,59,0.0,2.0,90,0.00,,,0.13,weatherlink.com 1.10,2013-01-06 21:23:00,
2013-01-06 13:38:00,49.9,47.0,30.03,North,4,0.0,2.0,89,0.00,,,0.13,weatherlink.com 1.10,2013-01-06 21:38:00,
2013-01-06 13:53:00,50.6,47.0,30.03,NNW,335,1.0,4.0,88,0.00,,,0.13,weatherlink.com 1.10,2013-01-06 21:53:00,
2013-01-06 14:08:00,51.2,47.0,30.03,North,7,0.0,2.0,86,0.00,,,0.13,weatherlink.com 1.10,2013-01-06 22:08:00,
2013-01-06 14:23:00,51.5,48.0,30.04,SE,127,0.0,4.0,86,0.00,,,0.13,weatherlink.com 1.10,2013-01-06 22:23:00,
2013-01-06 14:38:00,51.0,46.0,30.04,North,7,0.0,3.0,84,0.00,,,0.13,weatherlink.com 1.10,2013-01-06 22:38:00,
2013-01-06 14:53:00,50.6,46.0,30.04,NNE,20,0.0,6.0,83,0.00,,,0.13,weatherlink.com 1.10,2013-01-06 22:53:00,
2013-01-06 15:08:00,50.6,46.0,30.04,NNE,23,0.0,4.0,83,0.00,,,0.13,weatherlink.com 1.10,2013-01-06 23:08:00,
2013-01-06 15:23:00,50.6,45.0,30.04,NW,323,2.0,5.0,82,0.00,,,0.13,weatherlink.com 1.10,2013-01-06 23:23:00,
2013-01-06 15:38:00,50.3,45.0,30.05,NNW,338,0.0,4.0,82,0.00,,,0.13,weatherlink.com 1.10,2013-01-06 23:38:00,
2013-01-06 15:53:00,50.0,45.0,30.05,ENE,76,0.0,3.0,82,0.00,,,0.13,weatherlink.com 1.10,2013-01-06 23:53:00,
2013-01-06 16:08:00,49.7,44.0,30.05,North,351,0.0,3.0,81,0.00,,,0.13,weatherlink.com 1.10,2013-01-07 00:08:00,
2013-01-06 16:23:00,49.6,44.0,30.05,SE,141,0.0,1.0,81,0.00,,,0.13,weatherlink.com 1.10,2013-01-07 00:23:00,
2013-01-06 16:38:00,49.5,44.0,30.05,NW,316,0.0,2.0,82,0.00,,,0.13,weatherlink.com 1.10,2013-01-07 00:38:00,
2013-01-06 16:53:00,49.2,44.0,30.05,North,360,1.0,5.0,82,0.00,,,0.13,weatherlink.com 1.10,2013-01-07 00:53:00,
2013-01-06 17:08:00,49.0,44.0,30.05,NNW,334,0.0,3.0,83,0.00,,,0.13,weatherlink.com 1.10,2013-01-07 01:08:00,
2013-01-06 17:23:00,48.7,44.0,30.05,North,351,0.0,1.0,84,0.00,,,0.13,weatherlink.com 1.10,2013-01-07 01:23:00,
2013-01-06 17:38:00,48.2,44.0,30.05,North,351,0.0,1.0,85,0.00,,,0.13,weatherlink.com 1.10,2013-01-07 01:38:00,
2013-01-06 17:53:00,47.3,44.0,30.05,North,352,0.0,1.0,87,0.00,,,0.13,weatherlink.com 1.10,2013-01-07 01:53:00,
2013-01-06 18:08:00,46.7,43.0,30.05,North,351,0.0,1.0,87,0.00,,,0.13,weatherlink.com 1.10,2013-01-07 02:08:00,
2013-01-06 18:23:00,45.5,43.0,30.06,North,351,0.0,0.0,89,0.00,,,0.13,weatherlink.com 1.10,2013-01-07 02:23:00,
2013-01-06 18:38:00,44.4,42.0,30.06,NNW,330,0.0,0.0,91,0.00,,,0.13,weatherlink.com 1.10,2013-01-07 02:38:00,
2013-01-06 18:53:00,43.8,42.0,30.06,North,11,0.0,1.0,93,0.00,,,0.13,weatherlink.com 1.10,2013-01-07 02:53:00,
2013-01-06 19:08:00,43.4,42.0,30.06,North,11,0.0,0.0,94,0.00,,,0.13,weatherlink.com 1.10,2013-01-07 03:08:00,
2013-01-06 19:23:00,42.8,42.0,30.06,NNE,12,0.0,0.0,95,0.00,,,0.13,weatherlink.com 1.10,2013-01-07 03:23:00,
2013-01-06 19:38:00,42.5,41.0,30.07,NNE,25,0.0,1.0,95,0.00,,,0.13,weatherlink.com 1.10,2013-01-07 03:38:00,
2013-01-06 19:53:00,42.0,41.0,30.07,NW,310,0.0,1.0,95,0.00,,,0.13,weatherlink.com 1.10,2013-01-07 03:53:00,
2013-01-06 20:09:00,41.3,40.0,30.07,North,359,0.0,1.0,96,0.00,,,0.13,weatherlink.com 1.10,2013-01-07 04:09:00,
2013-01-06 20:24:00,41.3,40.0,30.08,North,359,0.0,1.0,96,0.00,,,0.13,weatherlink.com 1.10,2013-01-07 04:24:00,
2013-01-06 20:39:00,41.2,40.0,30.08,NE,49,0.0,1.0,96,0.00,,,0.13,weatherlink.com 1.10,2013-01-07 04:39:00,
2013-01-06 20:54:00,40.8,40.0,30.08,NE,49,0.0,1.0,96,0.00,,,0.13,weatherlink.com 1.10,2013-01-07 04:54:00,
2013-01-06 21:09:00,40.0,39.0,30.08,NE,49,0.0,0.0,96,0.00,,,0.13,weatherlink.com 1.10,2013-01-07 05:09:00,
2013-01-06 21:24:00,39.4,38.0,30.09,NE,48,0.0,1.0,96,0.00,,,0.13,weatherlink.com 1.10,2013-01-07 05:24:00,
2013-01-06 21:39:00,39.3,39.0,30.09,NE,49,0.0,0.0,97,0.00,,,0.13,weatherlink.com 1.10,2013-01-07 05:39:00,
2013-01-06 21:54:00,39.3,39.0,30.08,NE,47,0.0,1.0,97,0.00,,,0.13,weatherlink.com 1.10,2013-01-07 05:54:00,
2013-01-06 22:09:00,39.5,39.0,30.08,NE,43,0.0,2.0,97,0.00,,,0.13,weatherlink.com 1.10,2013-01-07 06:09:00,
2013-01-06 22:25:00,39.3,39.0,30.08,NW,311,0.0,2.0,97,0.00,,,0.13,weatherlink.com 1.10,2013-01-07 06:25:00,
2013-01-06 22:39:00,39.0,38.0,30.07,NW,312,0.0,1.0,97,0.00,,,0.13,weatherlink.com 1.10,2013-01-07 06:39:00,
2013-01-06 22:54:00,39.2,39.0,30.07,East,83,0.0,1.0,97,0.00,,,0.13,weatherlink.com 1.10,2013-01-07 06:54:00,
2013-01-06 23:09:00,39.2,39.0,30.07,ENE,60,0.0,2.0,97,0.00,,,0.13,weatherlink.com 1.10,2013-01-07 07:09:00,
2013-01-06 23:24:00,38.7,38.0,30.08,North,360,0.0,3.0,97,0.00,,,0.13,weatherlink.com 1.10,2013-01-07 07:24:00,
2013-01-06 23:39:00,38.7,38.0,30.08,NE,36,0.0,1.0,98,0.00,,,0.13,weatherlink.com 1.10,2013-01-07 07:39:00,
2013-01-06 23:54:00,38.6,38.0,30.08,ENE,62,0.0,2.0,97,0.00,,,0.13,weatherlink.com 1.10,2013-01-07 07:54:00,